GEFSCGP_prec_meanprecacc_258.txt.gz
Total_Precipitation_Accumulation
0.60 0.79 0.84 0.76 0.77 0.83 0.74 0.69 0.78 0.79 0.65 0.78 0.73 0.55 0.45 0.40 0.39 0.41 0.47 0.48 0.44 0.34 0.22 0.15 0.15 0.21 0.27 0.27 0.27 0.33 0.36 0.43 0.43 0.37 0.41 0.55 0.67 0.80 0.94 1.13 1.15 1.37 1.51 1.44
0.70 0.61 0.45 0.53 0.57 0.66 0.69 0.74 0.77 0.70 0.60 0.68 0.74 0.60 0.46 0.36 0.33 0.34 0.37 0.40 0.38 0.30 0.21 0.15 0.12 0.14 0.20 0.24 0.19 0.21 0.25 0.35 0.43 0.45 0.51 0.63 0.82 0.93 1.05 1.23 1.27 1.36 1.40 1.40
0.52 0.43 0.37 0.45 0.51 0.63 0.62 0.70 0.69 0.69 0.72 0.65 0.73 0.79 0.59 0.40 0.35 0.34 0.34 0.34 0.32 0.23 0.19 0.17 0.14 0.12 0.13 0.17 0.14 0.18 0.26 0.40 0.56 0.71 0.94 1.20 1.50 1.66 1.58 1.48 1.54 1.62 1.69 1.64
0.62 0.41 0.38 0.44 0.49 0.57 0.73 0.49 0.48 0.58 0.80 0.81 0.66 0.87 0.62 0.42 0.40 0.40 0.36 0.31 0.27 0.24 0.21 0.18 0.16 0.15 0.15 0.21 0.27 0.36 0.48 0.64 0.79 0.99 1.22 1.48 1.74 1.94 1.98 2.03 2.07 2.04 1.97 1.85
0.68 0.43 0.39 0.45 0.40 0.44 0.58 0.49 0.46 0.54 0.72 0.70 0.61 0.63 0.54 0.43 0.49 0.50 0.47 0.41 0.36 0.34 0.32 0.31 0.30 0.27 0.27 0.38 0.51 0.62 0.85 1.01 1.14 1.19 1.28 1.50 1.60 1.68 1.80 1.98 2.05 2.06 1.99 1.87
0.58 0.40 0.36 0.37 0.35 0.36 0.47 0.55 0.59 0.67 0.74 0.70 0.48 0.47 0.55 0.45 0.51 0.59 0.55 0.47 0.43 0.39 0.37 0.40 0.45 0.44 0.47 0.67 0.90 1.03 1.15 1.26 1.24 1.20 1.21 1.33 1.47 1.57 1.67 1.84 1.91 1.87 1.77 1.73
0.54 0.46 0.34 0.34 0.42 0.40 0.45 0.68 0.86 0.89 0.80 0.57 0.32 0.37 0.46 0.36 0.35 0.43 0.47 0.43 0.38 0.32 0.32 0.38 0.46 0.59 0.78 1.01 1.21 1.35 1.36 1.28 1.13 1.09 1.15 1.20 1.35 1.51 1.57 1.59 1.61 1.62 1.57 1.51
0.44 0.51 0.34 0.29 0.33 0.37 0.39 0.50 0.75 0.81 0.68 0.47 0.34 0.48 0.50 0.37 0.27 0.24 0.25 0.27 0.32 0.36 0.43 0.45 0.51 0.69 0.97 1.22 1.45 1.72 1.69 1.47 1.25 1.18 1.23 1.26 1.35 1.42 1.42 1.34 1.35 1.38 1.35 1.30
0.32 0.36 0.29 0.29 0.30 0.30 0.36 0.37 0.39 0.55 0.47 0.44 0.37 0.43 0.39 0.27 0.22 0.20 0.23 0.28 0.37 0.43 0.53 0.62 0.74 0.82 1.02 1.25 1.57 1.85 1.91 1.71 1.55 1.47 1.38 1.38 1.30 1.23 1.16 1.07 1.06 1.08 1.11 1.06
0.27 0.34 0.32 0.31 0.36 0.31 0.29 0.31 0.35 0.56 0.63 0.60 0.43 0.44 0.38 0.25 0.19 0.21 0.31 0.37 0.44 0.52 0.54 0.69 0.96 1.17 1.39 1.33 1.46 1.72 1.66 1.58 1.57 1.58 1.55 1.43 1.28 1.16 1.12 1.04 1.04 1.00 1.04 0.98
0.21 0.32 0.36 0.35 0.31 0.28 0.28 0.30 0.32 0.43 0.45 0.61 0.69 0.58 0.33 0.28 0.29 0.35 0.43 0.46 0.50 0.58 0.61 0.76 0.94 1.11 1.28 1.37 1.37 1.43 1.43 1.44 1.41 1.35 1.31 1.18 0.97 0.85 0.85 0.87 0.85 0.79 0.81 0.77
0.19 0.29 0.36 0.31 0.25 0.26 0.31 0.33 0.36 0.56 0.57 0.54 0.77 0.77 0.43 0.42 0.46 0.55 0.61 0.66 0.69 0.70 0.74 0.85 0.93 1.07 1.15 1.15 1.19 1.27 1.21 1.19 1.16 1.06 0.96 0.84 0.71 0.66 0.68 0.68 0.64 0.57 0.58 0.54
0.22 0.35 0.44 0.43 0.36 0.33 0.45 0.49 0.40 0.38 0.53 0.66 0.86 0.83 0.60 0.61 0.66 0.76 0.86 0.88 0.83 0.77 0.74 0.80 0.84 0.93 0.99 1.04 1.11 1.20 1.13 1.13 1.13 0.98 0.82 0.75 0.71 0.69 0.67 0.60 0.55 0.46 0.43 0.48
0.21 0.32 0.33 0.35 0.33 0.32 0.50 0.56 0.45 0.44 0.62 0.64 0.66 0.75 0.78 0.87 0.88 0.89 0.90 0.87 0.77 0.66 0.57 0.53 0.52 0.61 0.67 0.73 0.82 0.93 0.91 1.10 1.24 1.16 0.96 0.84 0.78 0.69 0.60 0.51 0.48 0.42 0.46 0.52
0.20 0.28 0.23 0.16 0.14 0.18 0.31 0.38 0.36 0.39 0.43 0.48 0.51 0.59 0.75 0.85 0.87 0.84 0.75 0.60 0.52 0.44 0.35 0.30 0.31 0.38 0.43 0.53 0.58 0.66 0.80 1.03 1.07 0.87 0.66 0.58 0.57 0.54 0.45 0.41 0.39 0.37 0.37 0.36
0.18 0.24 0.21 0.17 0.12 0.14 0.15 0.13 0.16 0.18 0.22 0.26 0.35 0.49 0.57 0.61 0.61 0.55 0.44 0.31 0.29 0.26 0.23 0.20 0.21 0.27 0.29 0.32 0.41 0.53 0.60 0.65 0.64 0.55 0.46 0.42 0.37 0.33 0.31 0.31 0.30 0.27 0.24 0.21
0.19 0.25 0.32 0.28 0.13 0.15 0.13 0.08 0.12 0.19 0.20 0.27 0.40 0.47 0.41 0.39 0.37 0.36 0.26 0.18 0.18 0.16 0.15 0.14 0.15 0.20 0.21 0.24 0.27 0.26 0.30 0.38 0.36 0.30 0.25 0.25 0.27 0.25 0.23 0.22 0.23 0.24 0.23 0.19
0.16 0.26 0.37 0.34 0.29 0.26 0.09 0.05 0.07 0.13 0.18 0.25 0.33 0.32 0.26 0.22 0.20 0.19 0.15 0.12 0.12 0.12 0.12 0.12 0.12 0.16 0.17 0.21 0.24 0.24 0.23 0.25 0.27 0.23 0.20 0.19 0.22 0.23 0.24 0.26 0.26 0.23 0.21 0.20
0.12 0.25 0.40 0.39 0.41 0.21 0.07 0.05 0.06 0.08 0.10 0.11 0.13 0.13 0.11 0.09 0.11 0.13 0.12 0.11 0.11 0.11 0.11 0.13 0.15 0.17 0.20 0.22 0.24 0.21 0.18 0.19 0.20 0.20 0.20 0.19 0.21 0.22 0.22 0.21 0.22 0.21 0.20 0.19
0.15 0.22 0.36 0.40 0.42 0.27 0.11 0.07 0.06 0.08 0.11 0.07 0.06 0.07 0.07 0.07 0.13 0.14 0.11 0.09 0.10 0.12 0.12 0.14 0.16 0.21 0.21 0.21 0.22 0.21 0.19 0.19 0.18 0.21 0.23 0.25 0.24 0.21 0.19 0.21 0.24 0.22 0.21 0.20
0.21 0.25 0.28 0.35 0.40 0.21 0.09 0.08 0.09 0.15 0.13 0.08 0.06 0.05 0.06 0.09 0.11 0.10 0.10 0.10 0.10 0.14 0.16 0.15 0.18 0.19 0.19 0.20 0.23 0.23 0.23 0.25 0.25 0.24 0.26 0.24 0.22 0.21 0.22 0.24 0.27 0.27 0.25 0.23
0.26 0.29 0.28 0.33 0.39 0.21 0.08 0.09 0.12 0.12 0.07 0.06 0.06 0.06 0.06 0.08 0.08 0.08 0.09 0.09 0.09 0.12 0.14 0.15 0.17 0.16 0.18 0.18 0.19 0.19 0.20 0.25 0.26 0.23 0.22 0.21 0.21 0.22 0.24 0.25 0.23 0.21 0.22 0.22
0.22 0.23 0.27 0.26 0.20 0.12 0.10 0.11 0.11 0.10 0.08 0.06 0.05 0.06 0.06 0.06 0.08 0.08 0.08 0.08 0.09 0.11 0.12 0.14 0.15 0.16 0.18 0.21 0.20 0.21 0.23 0.26 0.23 0.20 0.20 0.22 0.25 0.27 0.27 0.27 0.23 0.22 0.21 0.23
0.20 0.18 0.23 0.21 0.12 0.08 0.10 0.11 0.11 0.09 0.08 0.07 0.06 0.07 0.09 0.10 0.10 0.10 0.08 0.08 0.09 0.11 0.12 0.14 0.15 0.18 0.20 0.24 0.26 0.26 0.26 0.27 0.25 0.24 0.23 0.24 0.26 0.29 0.30 0.27 0.24 0.22 0.22 0.27
0.22 0.21 0.23 0.21 0.15 0.12 0.10 0.10 0.09 0.07 0.08 0.08 0.09 0.08 0.11 0.12 0.12 0.13 0.13 0.13 0.12 0.11 0.11 0.14 0.15 0.16 0.19 0.21 0.22 0.23 0.22 0.23 0.23 0.24 0.25 0.28 0.29 0.31 0.32 0.29 0.27 0.26 0.27 0.31
0.20 0.21 0.26 0.26 0.22 0.21 0.16 0.13 0.10 0.09 0.11 0.11 0.13 0.11 0.10 0.10 0.11 0.13 0.15 0.19 0.18 0.16 0.16 0.16 0.17 0.18 0.17 0.18 0.17 0.18 0.20 0.21 0.22 0.23 0.26 0.29 0.31 0.33 0.34 0.35 0.34 0.34 0.33 0.34

GEFSCGP_prec_meanprecacc_264.txt.gz
Total_Precipitation_Accumulation
0.62 0.81 0.85 0.77 0.77 0.83 0.75 0.70 0.79 0.80 0.66 0.79 0.74 0.56 0.45 0.41 0.39 0.41 0.47 0.49 0.45 0.34 0.23 0.15 0.15 0.21 0.28 0.28 0.28 0.34 0.38 0.45 0.44 0.39 0.42 0.57 0.69 0.81 0.95 1.13 1.15 1.38 1.52 1.45
0.72 0.62 0.46 0.54 0.59 0.67 0.70 0.75 0.79 0.72 0.62 0.69 0.75 0.61 0.47 0.37 0.33 0.34 0.37 0.40 0.39 0.30 0.21 0.15 0.12 0.14 0.20 0.25 0.20 0.22 0.26 0.37 0.45 0.48 0.52 0.65 0.83 0.94 1.06 1.24 1.27 1.36 1.40 1.40
0.53 0.43 0.38 0.46 0.53 0.65 0.64 0.72 0.71 0.72 0.74 0.67 0.74 0.80 0.60 0.42 0.36 0.35 0.35 0.35 0.32 0.24 0.20 0.17 0.14 0.13 0.13 0.18 0.15 0.19 0.27 0.42 0.57 0.73 0.96 1.22 1.51 1.67 1.59 1.49 1.55 1.63 1.70 1.64
0.62 0.42 0.38 0.45 0.50 0.59 0.75 0.51 0.51 0.60 0.82 0.83 0.68 0.89 0.63 0.43 0.42 0.41 0.37 0.32 0.28 0.24 0.22 0.19 0.17 0.15 0.16 0.22 0.28 0.37 0.49 0.65 0.81 1.00 1.23 1.49 1.75 1.96 2.00 2.06 2.10 2.06 1.98 1.86
0.69 0.43 0.39 0.45 0.41 0.45 0.59 0.50 0.49 0.56 0.74 0.71 0.62 0.64 0.55 0.45 0.51 0.51 0.48 0.42 0.37 0.34 0.32 0.31 0.31 0.28 0.28 0.38 0.52 0.64 0.87 1.02 1.15 1.20 1.29 1.51 1.62 1.71 1.83 2.01 2.09 2.09 2.02 1.90
0.59 0.40 0.36 0.37 0.35 0.38 0.48 0.56 0.61 0.69 0.76 0.71 0.49 0.48 0.56 0.46 0.51 0.60 0.57 0.49 0.43 0.40 0.38 0.40 0.45 0.45 0.48 0.69 0.92 1.06 1.18 1.29 1.28 1.23 1.24 1.36 1.50 1.61 1.72 1.89 1.97 1.91 1.80 1.77
0.54 0.47 0.35 0.34 0.42 0.41 0.47 0.70 0.89 0.91 0.83 0.59 0.33 0.38 0.47 0.36 0.35 0.44 0.48 0.46 0.40 0.34 0.34 0.38 0.47 0.60 0.78 1.02 1.23 1.37 1.37 1.29 1.15 1.11 1.17 1.21 1.36 1.54 1.59 1.62 1.66 1.66 1.61 1.55
0.44 0.52 0.35 0.29 0.34 0.37 0.40 0.52 0.77 0.83 0.70 0.49 0.35 0.48 0.51 0.37 0.28 0.25 0.26 0.29 0.35 0.38 0.45 0.46 0.52 0.69 0.98 1.23 1.46 1.73 1.71 1.48 1.26 1.19 1.23 1.26 1.36 1.43 1.43 1.35 1.38 1.41 1.38 1.33
0.33 0.36 0.30 0.29 0.30 0.31 0.37 0.38 0.42 0.57 0.49 0.45 0.38 0.44 0.40 0.28 0.23 0.21 0.24 0.29 0.39 0.45 0.54 0.64 0.75 0.83 1.04 1.27 1.59 1.87 1.92 1.71 1.56 1.47 1.38 1.38 1.31 1.23 1.17 1.07 1.07 1.11 1.14 1.10
0.30 0.35 0.33 0.32 0.36 0.31 0.29 0.32 0.37 0.58 0.64 0.60 0.44 0.46 0.41 0.28 0.21 0.22 0.32 0.38 0.45 0.53 0.55 0.70 0.97 1.19 1.41 1.35 1.48 1.72 1.66 1.59 1.57 1.59 1.55 1.44 1.28 1.16 1.13 1.05 1.05 1.02 1.07 1.01
0.23 0.34 0.38 0.35 0.32 0.28 0.28 0.31 0.34 0.46 0.47 0.62 0.70 0.59 0.36 0.31 0.31 0.37 0.45 0.48 0.52 0.59 0.63 0.78 0.96 1.13 1.30 1.39 1.39 1.44 1.44 1.45 1.42 1.36 1.31 1.18 0.97 0.85 0.85 0.87 0.86 0.81 0.83 0.80
0.21 0.32 0.38 0.32 0.25 0.27 0.32 0.34 0.37 0.60 0.61 0.57 0.79 0.80 0.45 0.44 0.47 0.56 0.63 0.68 0.71 0.72 0.75 0.86 0.95 1.10 1.18 1.17 1.22 1.29 1.22 1.21 1.18 1.07 0.97 0.85 0.72 0.66 0.68 0.69 0.65 0.58 0.60 0.56
0.24 0.38 0.46 0.44 0.37 0.34 0.46 0.50 0.41 0.40 0.56 0.69 0.89 0.86 0.63 0.63 0.68 0.77 0.88 0.90 0.84 0.79 0.76 0.82 0.86 0.95 1.01 1.06 1.13 1.21 1.15 1.15 1.14 1.00 0.85 0.77 0.72 0.70 0.68 0.62 0.56 0.47 0.44 0.50
0.24 0.35 0.35 0.37 0.34 0.34 0.51 0.57 0.46 0.46 0.64 0.67 0.69 0.78 0.79 0.88 0.90 0.91 0.91 0.89 0.79 0.68 0.59 0.55 0.54 0.63 0.69 0.74 0.84 0.94 0.93 1.12 1.26 1.17 0.97 0.86 0.81 0.71 0.62 0.53 0.49 0.43 0.47 0.53
0.22 0.30 0.24 0.16 0.15 0.19 0.32 0.39 0.36 0.40 0.45 0.50 0.53 0.61 0.76 0.87 0.90 0.86 0.77 0.62 0.54 0.46 0.37 0.31 0.32 0.39 0.45 0.55 0.60 0.68 0.82 1.05 1.09 0.89 0.68 0.60 0.60 0.58 0.47 0.43 0.42 0.39 0.39 0.38
0.20 0.27 0.23 0.18 0.12 0.14 0.15 0.14 0.16 0.19 0.23 0.28 0.37 0.52 0.59 0.64 0.64 0.58 0.45 0.32 0.30 0.27 0.24 0.21 0.23 0.28 0.30 0.33 0.42 0.54 0.62 0.68 0.67 0.59 0.49 0.45 0.40 0.36 0.34 0.34 0.33 0.30 0.27 0.23
0.20 0.27 0.34 0.29 0.14 0.15 0.14 0.08 0.13 0.20 0.21 0.28 0.42 0.50 0.45 0.42 0.40 0.38 0.28 0.19 0.18 0.17 0.16 0.14 0.16 0.22 0.22 0.25 0.27 0.28 0.34 0.42 0.41 0.34 0.29 0.29 0.31 0.28 0.25 0.26 0.27 0.27 0.26 0.22
0.17 0.26 0.38 0.36 0.30 0.26 0.10 0.05 0.08 0.14 0.19 0.26 0.34 0.34 0.27 0.24 0.21 0.20 0.15 0.12 0.13 0.13 0.13 0.12 0.13 0.16 0.19 0.22 0.25 0.26 0.28 0.31 0.32 0.26 0.21 0.21 0.24 0.25 0.26 0.28 0.29 0.27 0.24 0.22
0.12 0.26 0.41 0.40 0.42 0.21 0.07 0.05 0.06 0.08 0.11 0.12 0.13 0.13 0.11 0.10 0.12 0.14 0.12 0.11 0.12 0.12 0.12 0.14 0.15 0.18 0.21 0.24 0.26 0.23 0.22 0.23 0.24 0.22 0.22 0.21 0.23 0.24 0.24 0.23 0.24 0.24 0.23 0.22
0.15 0.22 0.36 0.40 0.42 0.27 0.11 0.07 0.06 0.08 0.12 0.08 0.07 0.07 0.08 0.08 0.14 0.15 0.11 0.10 0.11 0.13 0.13 0.14 0.17 0.21 0.22 0.23 0.24 0.23 0.22 0.21 0.20 0.23 0.25 0.28 0.27 0.24 0.22 0.23 0.25 0.24 0.23 0.23
0.21 0.25 0.29 0.35 0.41 0.21 0.09 0.08 0.09 0.15 0.14 0.08 0.06 0.06 0.07 0.09 0.12 0.11 0.10 0.10 0.10 0.15 0.17 0.16 0.18 0.19 0.20 0.21 0.24 0.25 0.26 0.27 0.27 0.26 0.29 0.28 0.26 0.25 0.25 0.27 0.29 0.28 0.26 0.25
0.26 0.30 0.29 0.33 0.39 0.22 0.08 0.09 0.12 0.12 0.08 0.06 0.06 0.06 0.06 0.08 0.08 0.08 0.10 0.09 0.09 0.12 0.15 0.16 0.17 0.17 0.19 0.20 0.22 0.22 0.23 0.28 0.28 0.25 0.25 0.24 0.23 0.24 0.27 0.28 0.25 0.23 0.23 0.23
0.23 0.24 0.28 0.27 0.22 0.13 0.10 0.11 0.11 0.10 0.09 0.06 0.05 0.06 0.06 0.07 0.08 0.08 0.08 0.09 0.10 0.12 0.13 0.14 0.16 0.17 0.20 0.22 0.23 0.24 0.26 0.30 0.26 0.23 0.24 0.25 0.27 0.29 0.29 0.30 0.26 0.24 0.23 0.24
0.21 0.20 0.24 0.23 0.14 0.09 0.11 0.11 0.11 0.09 0.08 0.07 0.06 0.07 0.10 0.10 0.11 0.12 0.09 0.09 0.10 0.12 0.13 0.15 0.17 0.20 0.21 0.26 0.28 0.29 0.30 0.31 0.31 0.30 0.29 0.31 0.31 0.32 0.33 0.30 0.28 0.25 0.24 0.28
0.22 0.21 0.24 0.23 0.17 0.13 0.11 0.10 0.09 0.07 0.08 0.08 0.09 0.08 0.11 0.13 0.12 0.14 0.13 0.13 0.12 0.12 0.12 0.14 0.16 0.17 0.20 0.22 0.24 0.26 0.26 0.28 0.29 0.30 0.32 0.35 0.34 0.36 0.36 0.34 0.32 0.31 0.30 0.33
0.20 0.21 0.27 0.27 0.23 0.22 0.17 0.14 0.10 0.10 0.12 0.11 0.13 0.11 0.10 0.11 0.12 0.13 0.15 0.19 0.19 0.16 0.16 0.16 0.18 0.19 0.18 0.19 0.18 0.20 0.23 0.24 0.26 0.28 0.32 0.34 0.37 0.38 0.39 0.40 0.38 0.39 0.37 0.38

GEFSCGP_prec_meanprecacc_270.txt.gz
Total_Precipitation_Accumulation
0.62 0.81 0.85 0.77 0.77 0.84 0.75 0.70 0.80 0.80 0.67 0.81 0.76 0.57 0.46 0.42 0.40 0.41 0.47 0.49 0.45 0.34 0.23 0.15 0.15 0.22 0.28 0.28 0.28 0.34 0.38 0.45 0.44 0.39 0.43 0.57 0.70 0.81 0.96 1.14 1.16 1.38 1.52 1.45
0.72 0.62 0.46 0.54 0.59 0.68 0.71 0.76 0.80 0.73 0.63 0.71 0.77 0.63 0.49 0.38 0.34 0.35 0.38 0.41 0.39 0.30 0.21 0.15 0.12 0.14 0.20 0.25 0.20 0.23 0.27 0.37 0.46 0.49 0.53 0.66 0.85 0.96 1.07 1.25 1.29 1.37 1.40 1.41
0.53 0.43 0.38 0.46 0.54 0.66 0.64 0.72 0.71 0.73 0.75 0.68 0.75 0.82 0.62 0.44 0.37 0.36 0.35 0.35 0.33 0.24 0.20 0.17 0.14 0.13 0.14 0.18 0.15 0.19 0.28 0.43 0.59 0.75 0.98 1.24 1.54 1.70 1.61 1.50 1.57 1.66 1.71 1.65
0.62 0.42 0.38 0.45 0.50 0.59 0.76 0.51 0.52 0.62 0.83 0.84 0.69 0.90 0.64 0.45 0.44 0.43 0.38 0.32 0.28 0.25 0.22 0.19 0.17 0.16 0.17 0.22 0.29 0.38 0.50 0.67 0.83 1.03 1.25 1.52 1.78 1.98 2.01 2.08 2.12 2.08 2.00 1.88
0.69 0.44 0.39 0.45 0.41 0.45 0.60 0.51 0.50 0.58 0.76 0.72 0.63 0.65 0.56 0.46 0.53 0.54 0.49 0.42 0.38 0.35 0.33 0.32 0.31 0.28 0.29 0.40 0.54 0.65 0.89 1.05 1.20 1.26 1.34 1.54 1.65 1.73 1.85 2.03 2.10 2.11 2.04 1.92
0.59 0.41 0.36 0.37 0.35 0.38 0.49 0.57 0.63 0.71 0.79 0.73 0.49 0.48 0.56 0.46 0.52 0.62 0.58 0.50 0.44 0.41 0.39 0.41 0.45 0.45 0.49 0.71 0.95 1.09 1.22 1.33 1.33 1.29 1.28 1.39 1.52 1.63 1.74 1.90 1.98 1.93 1.82 1.79
0.55 0.47 0.35 0.34 0.42 0.41 0.48 0.71 0.90 0.93 0.85 0.61 0.33 0.38 0.48 0.37 0.36 0.45 0.49 0.47 0.41 0.35 0.34 0.39 0.47 0.60 0.79 1.03 1.24 1.38 1.38 1.31 1.18 1.14 1.19 1.24 1.39 1.55 1.61 1.64 1.68 1.68 1.63 1.57
0.45 0.52 0.35 0.30 0.34 0.37 0.41 0.53 0.78 0.84 0.72 0.51 0.36 0.49 0.52 0.38 0.28 0.26 0.27 0.31 0.36 0.39 0.45 0.47 0.53 0.70 0.99 1.24 1.48 1.75 1.72 1.50 1.28 1.21 1.25 1.28 1.39 1.45 1.44 1.37 1.41 1.44 1.41 1.36
0.34 0.37 0.30 0.29 0.30 0.31 0.37 0.38 0.42 0.58 0.50 0.46 0.39 0.45 0.41 0.28 0.23 0.22 0.24 0.29 0.40 0.46 0.55 0.64 0.76 0.84 1.05 1.28 1.61 1.89 1.94 1.73 1.57 1.49 1.40 1.40 1.32 1.26 1.18 1.10 1.10 1.14 1.18 1.12
0.32 0.37 0.34 0.32 0.37 0.32 0.30 0.32 0.38 0.59 0.65 0.61 0.44 0.46 0.41 0.28 0.21 0.23 0.33 0.39 0.45 0.54 0.55 0.71 0.98 1.20 1.43 1.37 1.50 1.74 1.68 1.60 1.58 1.60 1.57 1.45 1.30 1.18 1.14 1.07 1.08 1.05 1.10 1.04
0.26 0.37 0.40 0.37 0.33 0.29 0.29 0.31 0.35 0.47 0.48 0.63 0.70 0.60 0.37 0.31 0.31 0.37 0.46 0.49 0.52 0.59 0.63 0.79 0.97 1.14 1.32 1.42 1.42 1.46 1.46 1.46 1.43 1.36 1.32 1.19 0.98 0.87 0.86 0.88 0.88 0.83 0.85 0.82
0.23 0.34 0.41 0.34 0.27 0.27 0.33 0.35 0.38 0.61 0.62 0.57 0.79 0.81 0.46 0.45 0.48 0.57 0.64 0.69 0.72 0.72 0.76 0.87 0.96 1.12 1.20 1.20 1.24 1.33 1.26 1.23 1.19 1.08 0.98 0.86 0.73 0.67 0.69 0.70 0.67 0.61 0.62 0.58
0.26 0.40 0.48 0.46 0.40 0.36 0.47 0.51 0.41 0.40 0.57 0.71 0.90 0.87 0.63 0.64 0.68 0.78 0.89 0.91 0.85 0.80 0.77 0.83 0.87 0.97 1.03 1.09 1.16 1.24 1.18 1.17 1.17 1.01 0.86 0.79 0.73 0.71 0.70 0.64 0.59 0.50 0.46 0.51
0.25 0.36 0.36 0.38 0.36 0.36 0.53 0.58 0.48 0.47 0.65 0.68 0.70 0.78 0.80 0.89 0.91 0.93 0.94 0.91 0.81 0.70 0.61 0.56 0.55 0.65 0.72 0.77 0.86 0.96 0.95 1.14 1.28 1.19 0.99 0.89 0.83 0.74 0.66 0.55 0.52 0.46 0.49 0.55
0.24 0.32 0.26 0.18 0.16 0.20 0.33 0.41 0.38 0.42 0.48 0.52 0.55 0.63 0.77 0.88 0.90 0.86 0.77 0.63 0.55 0.48 0.39 0.33 0.34 0.41 0.47 0.58 0.63 0.70 0.84 1.07 1.11 0.91 0.70 0.63 0.63 0.62 0.52 0.46 0.44 0.41 0.41 0.40
0.23 0.29 0.24 0.19 0.13 0.15 0.16 0.15 0.17 0.20 0.25 0.31 0.43 0.56 0.62 0.65 0.65 0.58 0.46 0.33 0.31 0.29 0.26 0.23 0.24 0.30 0.32 0.36 0.44 0.56 0.64 0.71 0.70 0.61 0.52 0.47 0.43 0.39 0.38 0.38 0.36 0.32 0.29 0.26
0.24 0.30 0.36 0.30 0.15 0.16 0.15 0.10 0.13 0.21 0.23 0.30 0.47 0.57 0.49 0.44 0.41 0.38 0.28 0.19 0.19 0.18 0.18 0.17 0.18 0.23 0.23 0.26 0.29 0.30 0.36 0.46 0.44 0.36 0.30 0.30 0.31 0.29 0.26 0.28 0.29 0.29 0.27 0.24
0.20 0.30 0.41 0.37 0.31 0.27 0.11 0.06 0.09 0.14 0.20 0.27 0.36 0.37 0.31 0.27 0.23 0.20 0.15 0.13 0.14 0.14 0.15 0.15 0.16 0.18 0.20 0.23 0.26 0.28 0.30 0.34 0.36 0.29 0.23 0.22 0.25 0.26 0.27 0.29 0.30 0.29 0.27 0.25
0.14 0.28 0.43 0.42 0.43 0.22 0.07 0.05 0.06 0.08 0.11 0.13 0.15 0.15 0.13 0.12 0.14 0.15 0.13 0.12 0.12 0.13 0.14 0.15 0.17 0.20 0.22 0.25 0.27 0.24 0.24 0.24 0.26 0.24 0.24 0.22 0.24 0.26 0.25 0.24 0.26 0.25 0.25 0.24
0.16 0.23 0.38 0.42 0.43 0.28 0.11 0.07 0.06 0.08 0.12 0.08 0.08 0.08 0.08 0.09 0.15 0.16 0.12 0.10 0.11 0.13 0.14 0.16 0.18 0.22 0.22 0.23 0.25 0.24 0.24 0.23 0.22 0.25 0.27 0.30 0.28 0.25 0.24 0.26 0.27 0.25 0.24 0.25
0.22 0.27 0.30 0.37 0.42 0.21 0.09 0.08 0.09 0.15 0.14 0.08 0.06 0.06 0.07 0.10 0.12 0.11 0.11 0.10 0.10 0.15 0.17 0.16 0.19 0.20 0.21 0.22 0.25 0.26 0.27 0.29 0.29 0.29 0.31 0.30 0.27 0.26 0.27 0.28 0.31 0.29 0.27 0.26
0.27 0.30 0.30 0.35 0.41 0.24 0.09 0.10 0.12 0.12 0.08 0.06 0.06 0.06 0.06 0.08 0.09 0.08 0.10 0.09 0.09 0.12 0.15 0.16 0.18 0.18 0.20 0.21 0.22 0.23 0.24 0.30 0.31 0.28 0.28 0.27 0.25 0.26 0.28 0.30 0.27 0.25 0.24 0.25
0.24 0.24 0.28 0.28 0.23 0.14 0.12 0.12 0.12 0.11 0.09 0.06 0.05 0.06 0.06 0.07 0.08 0.08 0.08 0.09 0.10 0.12 0.13 0.14 0.16 0.17 0.20 0.23 0.23 0.25 0.28 0.32 0.29 0.26 0.26 0.28 0.30 0.32 0.32 0.33 0.29 0.27 0.25 0.25
0.22 0.20 0.24 0.23 0.14 0.10 0.12 0.13 0.12 0.10 0.09 0.07 0.06 0.07 0.10 0.10 0.11 0.12 0.09 0.09 0.10 0.12 0.13 0.15 0.17 0.20 0.22 0.26 0.28 0.30 0.32 0.33 0.33 0.33 0.33 0.36 0.36 0.37 0.38 0.35 0.32 0.29 0.27 0.31
0.22 0.21 0.24 0.23 0.17 0.13 0.12 0.11 0.10 0.09 0.09 0.09 0.09 0.09 0.11 0.13 0.12 0.14 0.13 0.13 0.12 0.12 0.12 0.15 0.16 0.17 0.20 0.23 0.24 0.26 0.27 0.29 0.29 0.31 0.34 0.39 0.41 0.45 0.45 0.40 0.37 0.37 0.36 0.38
0.20 0.21 0.27 0.27 0.23 0.22 0.17 0.14 0.11 0.10 0.12 0.12 0.14 0.12 0.11 0.11 0.12 0.13 0.16 0.19 0.19 0.16 0.16 0.16 0.18 0.19 0.18 0.19 0.19 0.20 0.23 0.25 0.26 0.30 0.34 0.37 0.41 0.45 0.47 0.49 0.47 0.48 0.46 0.47

GEFSCGP_prec_meanprecacc_276.txt.gz
Total_Precipitation_Accumulation
0.62 0.82 0.86 0.77 0.78 0.84 0.75 0.71 0.80 0.80 0.67 0.81 0.77 0.58 0.48 0.44 0.40 0.42 0.48 0.49 0.45 0.34 0.23 0.15 0.15 0.22 0.28 0.29 0.29 0.35 0.38 0.45 0.45 0.39 0.43 0.58 0.71 0.83 0.98 1.16 1.17 1.39 1.53 1.47
0.72 0.63 0.46 0.54 0.59 0.68 0.71 0.76 0.80 0.73 0.63 0.72 0.78 0.64 0.50 0.41 0.36 0.36 0.38 0.41 0.39 0.30 0.21 0.15 0.12 0.15 0.21 0.26 0.21 0.23 0.27 0.37 0.46 0.49 0.54 0.67 0.86 0.97 1.09 1.27 1.30 1.38 1.41 1.41
0.53 0.43 0.38 0.46 0.54 0.66 0.65 0.73 0.72 0.73 0.75 0.69 0.76 0.82 0.64 0.46 0.40 0.38 0.36 0.36 0.33 0.24 0.20 0.17 0.14 0.13 0.15 0.19 0.16 0.20 0.30 0.44 0.60 0.77 0.99 1.25 1.55 1.71 1.62 1.51 1.58 1.66 1.71 1.66
0.63 0.42 0.39 0.46 0.51 0.60 0.77 0.52 0.52 0.62 0.84 0.85 0.70 0.91 0.65 0.47 0.47 0.46 0.40 0.34 0.29 0.25 0.23 0.20 0.17 0.16 0.17 0.23 0.29 0.39 0.52 0.69 0.86 1.06 1.27 1.54 1.81 2.01 2.03 2.08 2.13 2.09 2.01 1.89
0.70 0.45 0.40 0.46 0.41 0.46 0.60 0.51 0.51 0.59 0.77 0.73 0.64 0.66 0.56 0.46 0.55 0.56 0.51 0.44 0.39 0.36 0.34 0.33 0.32 0.29 0.29 0.41 0.55 0.66 0.91 1.08 1.22 1.27 1.35 1.57 1.67 1.76 1.88 2.05 2.12 2.12 2.04 1.93
0.60 0.42 0.38 0.38 0.35 0.38 0.49 0.58 0.64 0.72 0.80 0.74 0.50 0.49 0.57 0.46 0.52 0.63 0.60 0.51 0.45 0.42 0.39 0.41 0.46 0.46 0.50 0.72 0.96 1.10 1.23 1.35 1.34 1.30 1.29 1.40 1.54 1.65 1.76 1.93 2.00 1.94 1.83 1.79
0.56 0.48 0.36 0.36 0.43 0.42 0.48 0.72 0.91 0.94 0.86 0.61 0.34 0.39 0.48 0.37 0.36 0.45 0.51 0.50 0.43 0.36 0.35 0.40 0.48 0.60 0.80 1.04 1.25 1.39 1.39 1.32 1.19 1.15 1.20 1.25 1.40 1.56 1.62 1.66 1.70 1.70 1.65 1.59
0.46 0.53 0.36 0.30 0.34 0.38 0.41 0.53 0.79 0.85 0.73 0.52 0.36 0.50 0.52 0.38 0.29 0.26 0.28 0.32 0.40 0.43 0.48 0.49 0.55 0.71 0.99 1.24 1.49 1.75 1.73 1.50 1.28 1.21 1.25 1.29 1.39 1.46 1.45 1.38 1.42 1.46 1.44 1.40
0.35 0.37 0.30 0.30 0.31 0.32 0.38 0.39 0.43 0.58 0.50 0.46 0.39 0.46 0.41 0.28 0.23 0.22 0.25 0.30 0.42 0.50 0.59 0.67 0.80 0.88 1.07 1.29 1.62 1.90 1.95 1.74 1.58 1.50 1.41 1.41 1.33 1.26 1.19 1.11 1.12 1.16 1.21 1.15
0.32 0.37 0.35 0.33 0.38 0.33 0.31 0.34 0.39 0.60 0.66 0.61 0.45 0.47 0.41 0.28 0.21 0.23 0.33 0.39 0.47 0.56 0.58 0.74 1.01 1.24 1.46 1.39 1.52 1.75 1.69 1.62 1.59 1.61 1.58 1.46 1.30 1.18 1.15 1.08 1.09 1.07 1.13 1.07
0.27 0.38 0.41 0.38 0.34 0.30 0.30 0.33 0.37 0.49 0.49 0.63 0.71 0.60 0.37 0.32 0.32 0.37 0.46 0.49 0.53 0.60 0.64 0.80 0.99 1.17 1.35 1.44 1.45 1.48 1.47 1.48 1.45 1.37 1.33 1.20 0.99 0.87 0.87 0.89 0.89 0.86 0.88 0.84
0.24 0.36 0.42 0.36 0.28 0.28 0.33 0.35 0.40 0.63 0.63 0.58 0.80 0.81 0.46 0.45 0.49 0.57 0.64 0.69 0.72 0.73 0.77 0.88 0.97 1.13 1.22 1.22 1.27 1.35 1.28 1.26 1.22 1.09 0.99 0.86 0.74 0.68 0.70 0.71 0.68 0.62 0.64 0.61
0.28 0.43 0.50 0.48 0.43 0.38 0.49 0.52 0.43 0.43 0.58 0.72 0.91 0.88 0.64 0.64 0.69 0.79 0.89 0.91 0.85 0.80 0.78 0.83 0.88 0.98 1.05 1.12 1.19 1.27 1.19 1.19 1.19 1.03 0.87 0.79 0.74 0.71 0.70 0.64 0.59 0.51 0.48 0.53
0.29 0.39 0.38 0.40 0.38 0.39 0.56 0.61 0.50 0.50 0.67 0.70 0.72 0.79 0.80 0.89 0.91 0.93 0.94 0.91 0.81 0.70 0.61 0.57 0.56 0.65 0.73 0.79 0.89 0.99 0.97 1.15 1.30 1.20 1.00 0.89 0.84 0.75 0.66 0.56 0.52 0.47 0.50 0.56
0.29 0.35 0.27 0.20 0.18 0.21 0.35 0.43 0.40 0.44 0.50 0.53 0.57 0.63 0.78 0.88 0.90 0.86 0.77 0.63 0.55 0.48 0.39 0.34 0.34 0.41 0.48 0.59 0.65 0.71 0.85 1.07 1.12 0.92 0.71 0.63 0.64 0.62 0.53 0.47 0.45 0.42 0.42 0.41
0.29 0.33 0.26 0.21 0.15 0.16 0.17 0.16 0.18 0.21 0.27 0.33 0.45 0.58 0.63 0.66 0.66 0.58 0.46 0.33 0.31 0.30 0.27 0.24 0.25 0.31 0.33 0.37 0.46 0.58 0.65 0.72 0.71 0.62 0.52 0.48 0.43 0.39 0.38 0.39 0.37 0.32 0.30 0.26
0.30 0.35 0.38 0.32 0.16 0.17 0.16 0.11 0.14 0.22 0.24 0.32 0.50 0.61 0.52 0.46 0.43 0.40 0.29 0.20 0.20 0.20 0.20 0.19 0.19 0.24 0.24 0.27 0.30 0.31 0.37 0.47 0.44 0.37 0.31 0.31 0.32 0.29 0.26 0.28 0.29 0.30 0.28 0.25
0.24 0.35 0.44 0.40 0.33 0.29 0.12 0.07 0.10 0.15 0.21 0.29 0.39 0.41 0.34 0.30 0.26 0.22 0.17 0.14 0.15 0.16 0.16 0.16 0.17 0.20 0.22 0.24 0.26 0.28 0.31 0.35 0.37 0.29 0.24 0.23 0.25 0.26 0.27 0.29 0.31 0.30 0.28 0.27
0.16 0.31 0.47 0.45 0.45 0.23 0.09 0.07 0.08 0.09 0.13 0.14 0.16 0.17 0.16 0.15 0.16 0.17 0.14 0.13 0.13 0.14 0.15 0.17 0.19 0.22 0.25 0.27 0.28 0.25 0.25 0.25 0.27 0.26 0.25 0.23 0.24 0.26 0.25 0.25 0.26 0.26 0.25 0.25
0.17 0.25 0.41 0.44 0.45 0.29 0.12 0.08 0.07 0.09 0.13 0.10 0.09 0.09 0.10 0.11 0.18 0.19 0.14 0.11 0.11 0.13 0.14 0.16 0.19 0.23 0.25 0.27 0.27 0.25 0.24 0.24 0.22 0.25 0.28 0.30 0.29 0.25 0.24 0.26 0.28 0.25 0.24 0.25
0.23 0.28 0.31 0.38 0.43 0.23 0.09 0.08 0.09 0.16 0.15 0.09 0.07 0.06 0.07 0.10 0.13 0.13 0.12 0.11 0.11 0.15 0.17 0.17 0.19 0.21 0.22 0.24 0.27 0.30 0.29 0.30 0.30 0.29 0.32 0.30 0.28 0.26 0.27 0.29 0.31 0.29 0.27 0.26
0.27 0.31 0.31 0.35 0.42 0.24 0.09 0.10 0.13 0.13 0.09 0.07 0.07 0.06 0.07 0.08 0.09 0.08 0.10 0.09 0.10 0.12 0.15 0.16 0.18 0.18 0.21 0.22 0.24 0.24 0.26 0.32 0.32 0.28 0.28 0.27 0.25 0.26 0.28 0.31 0.28 0.25 0.25 0.26
0.24 0.25 0.28 0.28 0.23 0.15 0.12 0.12 0.12 0.11 0.09 0.06 0.06 0.06 0.06 0.07 0.08 0.08 0.08 0.09 0.10 0.12 0.13 0.14 0.16 0.18 0.20 0.23 0.24 0.26 0.29 0.33 0.30 0.26 0.27 0.29 0.30 0.33 0.33 0.34 0.30 0.27 0.26 0.26
0.22 0.20 0.24 0.23 0.14 0.10 0.12 0.13 0.12 0.10 0.09 0.07 0.06 0.07 0.10 0.11 0.11 0.12 0.09 0.09 0.10 0.12 0.13 0.15 0.17 0.20 0.22 0.26 0.28 0.30 0.32 0.33 0.34 0.33 0.33 0.37 0.38 0.40 0.40 0.36 0.33 0.30 0.28 0.32
0.23 0.22 0.25 0.23 0.17 0.13 0.12 0.11 0.10 0.09 0.09 0.09 0.09 0.09 0.11 0.13 0.13 0.14 0.14 0.13 0.12 0.12 0.12 0.15 0.16 0.17 0.20 0.23 0.24 0.26 0.27 0.29 0.30 0.32 0.35 0.40 0.42 0.47 0.50 0.47 0.42 0.40 0.39 0.41
0.22 0.22 0.27 0.27 0.23 0.22 0.18 0.14 0.11 0.10 0.13 0.12 0.14 0.12 0.11 0.11 0.12 0.13 0.16 0.19 0.19 0.16 0.16 0.17 0.18 0.19 0.19 0.19 0.19 0.20 0.23 0.25 0.27 0.30 0.34 0.37 0.42 0.46 0.49 0.52 0.52 0.55 0.53 0.53

GEFSCGP_prec_meanprecacc_282.txt.gz
Total_Precipitation_Accumulation
0.62 0.82 0.86 0.78 0.78 0.84 0.75 0.71 0.80 0.80 0.67 0.82 0.78 0.61 0.50 0.45 0.41 0.43 0.49 0.50 0.45 0.34 0.23 0.15 0.15 0.22 0.28 0.29 0.29 0.35 0.38 0.46 0.46 0.41 0.45 0.60 0.73 0.85 1.00 1.19 1.20 1.42 1.56 1.49
0.73 0.63 0.47 0.54 0.59 0.68 0.71 0.76 0.80 0.73 0.63 0.72 0.79 0.65 0.52 0.42 0.36 0.37 0.40 0.43 0.40 0.31 0.21 0.15 0.12 0.15 0.21 0.26 0.21 0.23 0.27 0.38 0.48 0.51 0.55 0.69 0.88 0.99 1.10 1.28 1.31 1.40 1.43 1.42
0.54 0.44 0.38 0.47 0.54 0.66 0.65 0.73 0.72 0.73 0.75 0.70 0.77 0.84 0.65 0.48 0.41 0.39 0.38 0.38 0.35 0.25 0.21 0.18 0.15 0.13 0.15 0.19 0.16 0.20 0.30 0.44 0.60 0.78 1.01 1.28 1.58 1.74 1.64 1.52 1.60 1.69 1.74 1.67
0.63 0.42 0.39 0.46 0.51 0.60 0.77 0.52 0.52 0.63 0.85 0.87 0.72 0.94 0.66 0.48 0.47 0.46 0.41 0.35 0.31 0.27 0.24 0.20 0.18 0.17 0.18 0.24 0.30 0.39 0.53 0.69 0.86 1.06 1.28 1.56 1.83 2.04 2.05 2.09 2.14 2.11 2.03 1.91
0.71 0.45 0.40 0.46 0.42 0.46 0.61 0.51 0.51 0.59 0.78 0.75 0.65 0.68 0.58 0.48 0.56 0.56 0.51 0.44 0.40 0.38 0.35 0.34 0.33 0.30 0.31 0.41 0.55 0.66 0.91 1.08 1.22 1.27 1.36 1.58 1.70 1.78 1.89 2.05 2.12 2.13 2.06 1.95
0.61 0.42 0.38 0.38 0.35 0.38 0.50 0.58 0.64 0.73 0.82 0.77 0.51 0.51 0.59 0.47 0.53 0.64 0.61 0.52 0.46 0.44 0.41 0.43 0.48 0.48 0.52 0.73 0.96 1.11 1.24 1.35 1.34 1.30 1.30 1.41 1.56 1.67 1.77 1.93 2.01 1.95 1.84 1.82
0.57 0.49 0.37 0.36 0.43 0.42 0.49 0.74 0.94 0.97 0.90 0.64 0.34 0.40 0.48 0.37 0.36 0.46 0.51 0.50 0.45 0.38 0.38 0.42 0.49 0.62 0.82 1.05 1.25 1.39 1.40 1.32 1.19 1.15 1.21 1.26 1.41 1.57 1.63 1.67 1.70 1.70 1.66 1.61
0.47 0.54 0.36 0.31 0.35 0.38 0.42 0.55 0.82 0.88 0.76 0.54 0.37 0.51 0.53 0.38 0.29 0.26 0.28 0.33 0.41 0.44 0.51 0.52 0.56 0.72 1.01 1.26 1.49 1.76 1.73 1.50 1.28 1.21 1.26 1.30 1.40 1.47 1.45 1.38 1.43 1.46 1.45 1.40
0.36 0.38 0.31 0.30 0.31 0.32 0.39 0.40 0.44 0.60 0.52 0.48 0.41 0.47 0.42 0.28 0.23 0.22 0.25 0.30 0.42 0.51 0.60 0.70 0.83 0.90 1.11 1.33 1.64 1.90 1.95 1.75 1.58 1.50 1.41 1.42 1.34 1.27 1.20 1.12 1.12 1.17 1.22 1.16
0.33 0.38 0.35 0.33 0.38 0.34 0.31 0.34 0.41 0.62 0.68 0.64 0.46 0.48 0.42 0.29 0.22 0.23 0.33 0.39 0.47 0.56 0.59 0.75 1.03 1.27 1.51 1.45 1.57 1.77 1.70 1.62 1.60 1.61 1.58 1.47 1.31 1.19 1.15 1.08 1.09 1.07 1.13 1.08
0.28 0.39 0.42 0.38 0.35 0.31 0.31 0.34 0.38 0.51 0.51 0.66 0.73 0.61 0.37 0.32 0.32 0.37 0.46 0.49 0.53 0.60 0.65 0.81 1.01 1.19 1.39 1.50 1.51 1.51 1.49 1.50 1.46 1.38 1.34 1.20 1.00 0.88 0.87 0.89 0.89 0.86 0.89 0.85
0.25 0.38 0.44 0.37 0.28 0.28 0.34 0.37 0.41 0.65 0.64 0.60 0.83 0.83 0.47 0.45 0.49 0.57 0.64 0.69 0.72 0.73 0.78 0.89 0.98 1.16 1.26 1.27 1.33 1.39 1.30 1.28 1.23 1.11 1.00 0.87 0.74 0.69 0.70 0.71 0.68 0.63 0.65 0.62
0.31 0.46 0.53 0.50 0.44 0.39 0.49 0.53 0.44 0.44 0.60 0.74 0.93 0.89 0.64 0.64 0.69 0.79 0.89 0.91 0.85 0.80 0.79 0.85 0.90 1.00 1.07 1.14 1.23 1.32 1.23 1.22 1.21 1.05 0.89 0.80 0.74 0.72 0.71 0.65 0.59 0.51 0.49 0.55
0.32 0.42 0.40 0.43 0.41 0.41 0.58 0.62 0.51 0.52 0.68 0.71 0.73 0.81 0.81 0.90 0.91 0.93 0.94 0.91 0.81 0.70 0.61 0.58 0.58 0.66 0.74 0.80 0.91 1.02 1.00 1.18 1.32 1.22 1.01 0.90 0.86 0.77 0.69 0.58 0.53 0.47 0.52 0.58
0.32 0.37 0.28 0.21 0.20 0.23 0.37 0.45 0.42 0.47 0.52 0.55 0.58 0.65 0.79 0.89 0.91 0.86 0.77 0.63 0.55 0.48 0.39 0.34 0.35 0.42 0.49 0.60 0.66 0.73 0.87 1.10 1.14 0.94 0.72 0.64 0.65 0.64 0.54 0.48 0.47 0.43 0.43 0.42
0.32 0.34 0.27 0.22 0.17 0.17 0.18 0.17 0.20 0.23 0.28 0.34 0.46 0.60 0.65 0.67 0.67 0.59 0.46 0.34 0.32 0.30 0.27 0.24 0.25 0.31 0.34 0.38 0.46 0.59 0.67 0.74 0.73 0.63 0.53 0.48 0.44 0.40 0.39 0.40 0.38 0.34 0.31 0.28
0.31 0.36 0.39 0.32 0.17 0.19 0.18 0.12 0.16 0.23 0.24 0.33 0.51 0.64 0.55 0.48 0.45 0.42 0.31 0.20 0.21 0.20 0.20 0.19 0.20 0.24 0.24 0.27 0.31 0.32 0.39 0.49 0.46 0.39 0.33 0.32 0.33 0.30 0.28 0.29 0.31 0.32 0.31 0.28
0.25 0.36 0.45 0.41 0.34 0.30 0.13 0.08 0.10 0.16 0.22 0.30 0.40 0.43 0.37 0.32 0.27 0.24 0.18 0.15 0.16 0.16 0.16 0.16 0.17 0.21 0.22 0.25 0.27 0.29 0.32 0.37 0.39 0.32 0.27 0.25 0.28 0.28 0.29 0.30 0.32 0.32 0.31 0.30
0.17 0.33 0.48 0.46 0.47 0.25 0.09 0.07 0.08 0.10 0.14 0.15 0.18 0.19 0.18 0.17 0.17 0.18 0.16 0.14 0.14 0.14 0.15 0.17 0.19 0.23 0.26 0.28 0.28 0.25 0.25 0.26 0.28 0.28 0.28 0.27 0.29 0.30 0.28 0.26 0.27 0.27 0.27 0.27
0.18 0.26 0.42 0.46 0.47 0.30 0.12 0.08 0.07 0.09 0.13 0.11 0.11 0.11 0.12 0.13 0.19 0.21 0.16 0.12 0.12 0.14 0.14 0.17 0.19 0.23 0.25 0.27 0.28 0.26 0.25 0.25 0.24 0.27 0.29 0.32 0.32 0.29 0.26 0.28 0.29 0.26 0.25 0.27
0.24 0.29 0.33 0.40 0.45 0.24 0.10 0.08 0.10 0.16 0.16 0.10 0.09 0.08 0.09 0.12 0.15 0.15 0.14 0.13 0.12 0.16 0.18 0.17 0.20 0.22 0.23 0.25 0.28 0.30 0.30 0.31 0.31 0.31 0.34 0.32 0.30 0.29 0.30 0.31 0.33 0.31 0.29 0.28
0.29 0.34 0.33 0.37 0.44 0.26 0.10 0.10 0.14 0.14 0.10 0.08 0.08 0.08 0.08 0.10 0.10 0.10 0.12 0.11 0.11 0.13 0.16 0.17 0.18 0.18 0.22 0.23 0.25 0.25 0.27 0.33 0.33 0.29 0.29 0.28 0.27 0.28 0.31 0.34 0.30 0.27 0.27 0.27
0.25 0.26 0.31 0.32 0.27 0.16 0.12 0.13 0.13 0.12 0.10 0.07 0.06 0.07 0.07 0.08 0.09 0.09 0.09 0.10 0.10 0.13 0.14 0.15 0.17 0.18 0.21 0.24 0.25 0.27 0.30 0.34 0.31 0.28 0.28 0.30 0.32 0.34 0.34 0.36 0.33 0.29 0.28 0.29
0.23 0.20 0.26 0.25 0.16 0.11 0.12 0.13 0.13 0.11 0.09 0.07 0.06 0.07 0.10 0.11 0.11 0.12 0.09 0.09 0.11 0.13 0.14 0.16 0.18 0.21 0.22 0.26 0.29 0.30 0.32 0.34 0.35 0.35 0.35 0.38 0.40 0.42 0.41 0.38 0.35 0.33 0.31 0.34
0.24 0.23 0.26 0.25 0.19 0.14 0.12 0.11 0.10 0.09 0.10 0.09 0.09 0.09 0.12 0.13 0.13 0.14 0.14 0.13 0.12 0.12 0.12 0.15 0.17 0.17 0.21 0.23 0.24 0.27 0.28 0.30 0.31 0.33 0.36 0.42 0.44 0.49 0.52 0.49 0.45 0.43 0.42 0.45
0.22 0.23 0.28 0.28 0.24 0.24 0.18 0.15 0.11 0.11 0.14 0.13 0.14 0.12 0.11 0.11 0.12 0.13 0.16 0.19 0.19 0.16 0.16 0.17 0.18 0.20 0.19 0.19 0.19 0.20 0.23 0.25 0.27 0.31 0.35 0.39 0.44 0.47 0.50 0.54 0.54 0.57 0.55 0.56

GEFSCGP_prec_meanprecacc_288.txt.gz
Total_Precipitation_Accumulation
0.62 0.83 0.87 0.78 0.78 0.84 0.76 0.71 0.81 0.81 0.68 0.82 0.78 0.62 0.52 0.47 0.45 0.48 0.54 0.53 0.48 0.35 0.23 0.16 0.16 0.23 0.29 0.30 0.30 0.36 0.40 0.49 0.50 0.44 0.47 0.63 0.76 0.89 1.04 1.23 1.24 1.46 1.59 1.51
0.73 0.63 0.47 0.55 0.60 0.69 0.72 0.77 0.81 0.74 0.63 0.72 0.79 0.66 0.53 0.44 0.38 0.39 0.44 0.46 0.42 0.32 0.22 0.17 0.13 0.16 0.22 0.27 0.22 0.24 0.28 0.39 0.51 0.54 0.58 0.72 0.91 1.02 1.14 1.32 1.36 1.44 1.46 1.44
0.54 0.44 0.38 0.47 0.55 0.67 0.66 0.74 0.72 0.74 0.76 0.70 0.78 0.85 0.66 0.50 0.42 0.40 0.39 0.41 0.38 0.28 0.23 0.20 0.16 0.14 0.16 0.20 0.17 0.21 0.31 0.45 0.62 0.80 1.04 1.31 1.61 1.77 1.66 1.55 1.64 1.73 1.77 1.69
0.63 0.42 0.39 0.47 0.52 0.61 0.78 0.52 0.53 0.63 0.86 0.88 0.73 0.96 0.67 0.49 0.48 0.48 0.43 0.37 0.34 0.29 0.26 0.22 0.19 0.18 0.19 0.25 0.31 0.41 0.54 0.70 0.87 1.07 1.30 1.59 1.86 2.07 2.08 2.13 2.18 2.15 2.07 1.95
0.72 0.45 0.41 0.46 0.42 0.46 0.61 0.52 0.52 0.60 0.79 0.76 0.67 0.70 0.59 0.49 0.57 0.59 0.55 0.46 0.42 0.40 0.37 0.35 0.34 0.31 0.32 0.43 0.56 0.68 0.93 1.09 1.23 1.28 1.37 1.60 1.72 1.81 1.92 2.09 2.16 2.17 2.09 1.99
0.62 0.43 0.38 0.38 0.36 0.39 0.50 0.59 0.65 0.75 0.83 0.79 0.52 0.52 0.60 0.48 0.54 0.65 0.63 0.54 0.48 0.45 0.42 0.44 0.50 0.50 0.54 0.74 0.97 1.12 1.26 1.37 1.36 1.31 1.30 1.42 1.57 1.68 1.79 1.95 2.03 1.98 1.87 1.85
0.58 0.50 0.38 0.36 0.44 0.43 0.50 0.75 0.96 0.99 0.92 0.66 0.35 0.40 0.49 0.38 0.36 0.46 0.52 0.52 0.47 0.40 0.40 0.44 0.52 0.65 0.86 1.07 1.26 1.39 1.41 1.34 1.21 1.16 1.22 1.27 1.41 1.58 1.63 1.68 1.71 1.71 1.68 1.63
0.48 0.55 0.37 0.31 0.35 0.39 0.43 0.55 0.83 0.90 0.77 0.55 0.38 0.52 0.53 0.38 0.29 0.27 0.28 0.34 0.43 0.47 0.52 0.55 0.59 0.76 1.05 1.30 1.51 1.77 1.75 1.53 1.31 1.23 1.27 1.31 1.41 1.47 1.46 1.39 1.43 1.47 1.46 1.42
0.37 0.39 0.31 0.30 0.32 0.32 0.39 0.40 0.44 0.61 0.52 0.49 0.42 0.48 0.42 0.28 0.23 0.22 0.25 0.31 0.44 0.53 0.62 0.71 0.85 0.93 1.14 1.36 1.67 1.93 1.98 1.78 1.61 1.51 1.43 1.43 1.35 1.27 1.21 1.13 1.13 1.18 1.23 1.16
0.34 0.38 0.35 0.33 0.39 0.34 0.31 0.34 0.41 0.63 0.70 0.65 0.47 0.48 0.42 0.29 0.22 0.23 0.33 0.39 0.48 0.57 0.60 0.77 1.05 1.29 1.54 1.48 1.60 1.80 1.73 1.66 1.64 1.64 1.60 1.48 1.32 1.20 1.16 1.10 1.11 1.08 1.14 1.08
0.29 0.40 0.42 0.39 0.35 0.31 0.31 0.34 0.39 0.52 0.53 0.68 0.75 0.63 0.38 0.32 0.32 0.38 0.46 0.49 0.53 0.61 0.67 0.83 1.03 1.21 1.42 1.53 1.54 1.55 1.52 1.54 1.51 1.42 1.37 1.22 1.01 0.89 0.89 0.91 0.91 0.87 0.90 0.85
0.27 0.39 0.44 0.37 0.29 0.29 0.34 0.37 0.42 0.66 0.65 0.62 0.86 0.87 0.49 0.46 0.49 0.58 0.65 0.69 0.73 0.74 0.80 0.91 1.00 1.19 1.29 1.30 1.37 1.44 1.36 1.33 1.28 1.16 1.04 0.89 0.75 0.70 0.71 0.73 0.70 0.64 0.66 0.62
0.32 0.48 0.54 0.51 0.45 0.39 0.50 0.53 0.44 0.45 0.60 0.75 0.95 0.92 0.67 0.65 0.70 0.80 0.90 0.92 0.86 0.81 0.80 0.87 0.91 1.01 1.10 1.17 1.26 1.35 1.27 1.27 1.26 1.09 0.93 0.83 0.76 0.74 0.73 0.66 0.61 0.53 0.50 0.55
0.33 0.43 0.41 0.43 0.41 0.41 0.58 0.62 0.51 0.52 0.69 0.72 0.75 0.82 0.82 0.91 0.92 0.94 0.95 0.92 0.82 0.71 0.62 0.59 0.59 0.67 0.75 0.82 0.92 1.03 1.02 1.21 1.35 1.27 1.07 0.93 0.88 0.80 0.73 0.62 0.56 0.49 0.53 0.59
0.33 0.39 0.29 0.22 0.21 0.24 0.38 0.46 0.42 0.47 0.52 0.56 0.58 0.65 0.80 0.90 0.93 0.88 0.80 0.65 0.56 0.50 0.41 0.35 0.36 0.44 0.50 0.62 0.68 0.76 0.89 1.12 1.18 0.99 0.78 0.69 0.68 0.67 0.58 0.53 0.49 0.45 0.44 0.43
0.32 0.34 0.28 0.23 0.17 0.18 0.19 0.18 0.21 0.24 0.28 0.35 0.46 0.61 0.67 0.69 0.69 0.61 0.49 0.38 0.34 0.32 0.28 0.25 0.26 0.32 0.35 0.40 0.47 0.60 0.69 0.77 0.76 0.67 0.59 0.55 0.49 0.45 0.43 0.43 0.41 0.36 0.33 0.30
0.32 0.36 0.40 0.33 0.18 0.20 0.19 0.13 0.17 0.24 0.26 0.34 0.53 0.65 0.57 0.51 0.47 0.45 0.33 0.24 0.24 0.22 0.21 0.20 0.20 0.25 0.25 0.28 0.31 0.32 0.39 0.50 0.48 0.41 0.36 0.36 0.38 0.35 0.33 0.34 0.35 0.35 0.34 0.32
0.26 0.36 0.45 0.41 0.35 0.32 0.14 0.08 0.11 0.18 0.23 0.31 0.42 0.45 0.38 0.34 0.30 0.27 0.21 0.18 0.18 0.18 0.18 0.17 0.18 0.21 0.22 0.25 0.27 0.30 0.33 0.37 0.39 0.33 0.29 0.28 0.31 0.31 0.32 0.34 0.36 0.35 0.34 0.33
0.18 0.33 0.49 0.48 0.49 0.26 0.10 0.08 0.09 0.12 0.15 0.17 0.21 0.21 0.20 0.19 0.19 0.20 0.17 0.16 0.16 0.16 0.17 0.18 0.20 0.23 0.26 0.28 0.28 0.26 0.26 0.26 0.29 0.28 0.28 0.28 0.31 0.32 0.32 0.31 0.31 0.31 0.31 0.30
0.18 0.27 0.43 0.47 0.50 0.33 0.14 0.08 0.08 0.10 0.15 0.13 0.13 0.13 0.14 0.14 0.21 0.23 0.18 0.14 0.14 0.16 0.16 0.18 0.20 0.24 0.26 0.28 0.28 0.26 0.25 0.25 0.24 0.27 0.29 0.33 0.33 0.32 0.31 0.34 0.35 0.31 0.29 0.30
0.25 0.30 0.33 0.41 0.47 0.26 0.10 0.09 0.11 0.18 0.18 0.11 0.10 0.10 0.11 0.14 0.17 0.17 0.16 0.14 0.14 0.18 0.20 0.19 0.21 0.23 0.24 0.26 0.28 0.31 0.31 0.31 0.31 0.31 0.34 0.32 0.31 0.31 0.34 0.35 0.38 0.38 0.34 0.31
0.29 0.34 0.34 0.39 0.46 0.28 0.11 0.12 0.16 0.17 0.11 0.09 0.09 0.09 0.10 0.11 0.12 0.11 0.13 0.13 0.13 0.16 0.18 0.18 0.19 0.20 0.23 0.24 0.25 0.26 0.27 0.33 0.33 0.29 0.29 0.28 0.27 0.28 0.33 0.37 0.33 0.31 0.33 0.33
0.25 0.27 0.33 0.34 0.29 0.18 0.14 0.15 0.15 0.13 0.11 0.08 0.07 0.08 0.09 0.09 0.10 0.10 0.10 0.11 0.12 0.14 0.15 0.16 0.18 0.19 0.22 0.25 0.26 0.28 0.30 0.35 0.32 0.28 0.29 0.31 0.32 0.34 0.35 0.39 0.36 0.32 0.31 0.33
0.24 0.21 0.26 0.26 0.17 0.12 0.13 0.15 0.14 0.12 0.11 0.09 0.07 0.09 0.11 0.12 0.12 0.13 0.10 0.10 0.12 0.14 0.15 0.17 0.19 0.22 0.24 0.28 0.30 0.31 0.33 0.35 0.35 0.36 0.36 0.39 0.40 0.43 0.42 0.40 0.39 0.35 0.33 0.37
0.25 0.24 0.26 0.25 0.19 0.15 0.13 0.12 0.11 0.11 0.12 0.11 0.11 0.12 0.14 0.14 0.13 0.15 0.14 0.14 0.13 0.13 0.13 0.17 0.18 0.19 0.23 0.25 0.26 0.28 0.29 0.31 0.32 0.34 0.38 0.43 0.45 0.50 0.53 0.50 0.47 0.46 0.44 0.46
0.23 0.24 0.29 0.29 0.24 0.24 0.19 0.15 0.12 0.13 0.15 0.14 0.16 0.15 0.14 0.12 0.13 0.14 0.16 0.19 0.19 0.17 0.17 0.17 0.19 0.21 0.21 0.22 0.23 0.24 0.26 0.28 0.29 0.33 0.37 0.41 0.45 0.49 0.52 0.56 0.56 0.59 0.57 0.58